GFSNW_925_spd_000.txt.gz
Wind_Speed
7 9 12 17 22 18 3 0 2 7 3 0 2 3 3 1 2 3 2 2 2 0 1 2 1 1 1 1 1 2 3 4 5 13 13 6 8 7 5 3 5 7 6 17
5 8 10 14 20 24 4 2 2 5 1 2 3 3 3 4 1 4 1 1 2 1 2 3 2 1 2 2 2 3 2 1 7 9 3 2 3 4 6 9 4 17 9 12
4 7 8 11 15 19 5 1 1 4 4 2 6 5 3 3 4 3 3 3 1 0 2 2 4 4 1 2 9 3 3 7 11 12 17 15 19 23 23 17 8 19 21 38
5 6 8 9 11 14 5 4 3 2 2 4 6 3 2 3 2 2 1 2 3 2 2 5 2 4 10 8 2 4 5 9 15 21 20 18 22 29 30 25 27 17 37 31
6 6 7 8 8 9 5 1 0 1 3 1 3 1 3 4 3 2 2 2 3 2 4 7 14 10 10 9 4 4 3 7 4 14 21 20 23 29 32 28 30 31 33 35
6 7 7 8 7 6 2 1 2 1 0 1 2 3 6 5 2 3 3 4 4 6 10 7 10 13 15 17 18 15 6 3 3 6 7 5 10 24 22 17 15 16 21 26
9 8 8 7 6 3 2 2 1 4 3 3 3 4 6 7 7 5 4 7 4 2 1 9 11 15 17 18 19 13 5 3 3 6 4 7 3 17 19 18 19 22 21 22
12 11 10 8 7 3 2 3 2 2 1 3 4 7 6 4 5 7 9 10 6 2 3 3 5 4 3 5 5 8 15 4 4 4 8 20 13 7 7 11 15 16 16 14
16 15 12 11 9 8 6 6 5 3 4 5 7 7 8 7 6 3 5 2 2 1 1 1 3 4 4 5 4 0 3 6 4 3 10 15 11 24 5 5 14 8 7 19
20 19 16 14 13 11 11 5 10 2 2 3 6 5 4 4 3 4 1 2 1 2 2 4 5 5 9 5 5 5 3 3 11 12 10 12 13 3 1 4 10 10 20 24
23 22 20 17 16 16 15 7 15 9 3 6 9 6 10 4 4 5 3 0 2 2 4 4 5 4 5 4 13 6 8 4 5 5 7 11 4 3 5 14 24 28 28 28
25 24 22 21 18 18 16 8 16 20 6 3 8 19 27 21 20 9 4 7 5 3 3 3 3 3 3 4 10 6 5 10 10 12 10 14 12 16 18 24 25 28 24 24
28 26 25 24 21 20 21 16 14 17 1 4 5 12 31 26 28 24 8 2 8 5 8 4 4 10 3 7 7 10 6 13 11 14 14 26 21 21 25 28 24 23 23 15
29 27 28 26 24 23 25 22 22 15 2 2 5 18 21 21 22 25 27 26 19 13 6 4 5 8 8 5 7 8 9 6 8 18 22 28 23 23 23 26 25 24 18 14
29 28 27 24 26 25 28 31 27 25 8 3 3 4 18 20 18 23 23 24 16 9 3 4 6 3 5 7 10 11 6 8 7 18 26 23 28 26 28 30 26 23 17 15
24 26 27 26 25 25 18 2 17 30 29 2 3 2 5 15 22 23 25 21 7 7 3 4 3 3 4 4 7 12 12 15 19 21 23 27 30 31 30 24 24 24 20 16
12 12 13 20 22 26 6 4 5 8 21 2 3 3 2 4 5 6 9 15 4 5 3 4 6 6 4 3 17 32 22 24 24 23 23 25 26 20 24 25 24 24 20 10
10 9 8 7 9 10 1 1 3 6 2 3 2 3 2 4 3 3 1 2 2 3 4 1 5 7 3 7 21 25 24 25 23 21 17 17 20 22 18 19 18 19 16 7
9 12 11 6 3 2 2 4 5 6 4 2 3 2 1 2 2 1 1 2 2 3 4 5 6 7 8 17 23 22 24 22 24 20 18 17 13 16 17 18 18 16 11 3
14 8 4 2 4 7 4 1 0 1 1 2 2 0 1 3 1 1 2 3 4 4 5 3 4 14 22 24 24 22 23 18 10 10 10 12 15 15 17 14 10 6 4 3
2 2 1 3 4 4 2 2 3 2 2 2 2 3 6 3 5 4 4 3 3 4 3 4 3 5 13 11 10 7 6 5 5 7 10 11 12 12 8 5 5 5 4 4
4 6 4 2 1 2 2 3 3 4 3 2 2 2 3 2 2 4 3 4 4 7 2 2 3 4 4 2 3 4 4 5 7 10 10 9 6 4 4 3 3 4 4 4
5 3 2 1 2 4 5 5 3 3 2 1 1 1 1 1 1 3 2 4 1 2 2 3 3 5 3 1 3 5 6 6 8 12 12 9 6 4 4 5 5 2 2 3
2 3 4 4 5 5 4 2 2 2 1 2 1 1 2 2 2 2 5 3 2 4 4 5 1 2 5 5 5 6 8 7 7 10 9 5 4 4 3 1 2 2 2 3
2 3 4 6 1 1 1 1 1 1 1 2 2 3 2 3 4 4 4 4 5 4 4 1 3 3 6 8 8 9 6 6 7 9 5 6 6 6 5 3 1 2 2 3
1 3 3 3 2 3 2 3 2 2 2 0 1 3 3 6 4 6 6 4 6 7 3 5 6 11 10 11 8 7 9 9 10 11 8 8 6 7 6 4 1 1 2 2
3 4 4 4 2 3 2 3 3 5 3 2 2 5 11 1 4 5 5 8 10 8 8 8 12 11 13 14 12 9 11 12 13 11 6 6 7 7 5 3 3 1 2 2

GFSNW_925_spd_003.txt.gz
Wind_Speed
6 9 12 16 22 15 4 2 1 6 1 2 0 2 3 2 4 2 3 3 4 4 4 4 3 4 5 4 7 7 5 5 7 15 14 4 6 9 10 8 8 9 15 18
5 7 10 13 17 21 5 2 3 3 1 2 2 6 6 5 2 4 2 2 4 3 4 3 2 2 3 6 4 8 8 2 7 9 5 5 7 9 12 13 11 19 10 13
4 6 9 11 14 17 4 2 2 3 3 4 6 7 5 5 3 4 2 2 1 1 3 0 4 6 2 2 9 7 4 8 10 11 18 19 20 24 26 20 10 23 21 36
4 5 7 10 11 14 5 3 2 2 2 3 3 2 1 5 3 1 2 2 2 2 2 6 4 4 10 7 1 3 6 11 15 19 22 22 23 26 31 26 26 22 33 30
4 5 6 7 10 10 2 2 2 1 3 2 2 2 1 2 3 2 2 5 2 4 5 6 13 13 11 9 4 8 5 5 9 17 23 21 21 25 30 27 28 29 30 33
5 4 5 5 6 7 3 2 2 1 2 2 2 3 4 3 0 2 5 4 5 6 11 11 12 14 15 16 18 17 11 3 2 7 14 9 11 18 17 16 20 23 20 23
7 6 5 5 3 3 3 2 2 3 2 4 6 4 5 6 6 6 5 6 8 5 6 12 12 15 18 20 21 16 4 3 1 5 4 7 7 23 22 16 19 20 23 21
10 9 6 5 4 0 1 1 1 2 1 6 6 7 9 8 6 8 10 10 8 5 8 5 6 5 3 7 11 11 14 5 3 4 11 21 16 12 19 15 16 19 14 13
14 13 11 7 5 4 2 3 2 2 4 5 12 9 11 9 10 9 6 6 3 2 2 1 3 4 6 5 4 2 3 4 4 5 10 13 10 22 6 12 15 7 11 18
18 17 15 11 9 8 7 5 8 7 1 5 6 8 8 9 6 7 3 4 2 4 2 4 4 5 11 5 2 5 2 3 11 12 10 12 16 16 2 7 12 17 24 22
23 21 19 16 13 11 13 6 10 10 3 8 8 13 11 7 5 7 2 2 3 1 3 4 5 4 5 7 14 10 11 4 4 4 8 10 2 5 3 11 22 26 23 21
25 24 23 20 18 15 15 8 9 10 5 5 5 17 26 21 22 12 5 8 5 6 4 4 3 5 2 5 14 18 13 14 11 11 9 16 24 24 23 24 25 22 23 22
26 25 25 23 22 19 18 10 10 10 0 4 6 12 28 21 22 20 11 5 11 11 11 7 4 7 4 6 6 6 7 16 17 20 17 24 23 26 28 21 19 25 20 20
27 27 26 25 24 23 21 22 18 11 3 3 4 18 18 19 20 23 26 25 21 18 7 3 3 3 7 6 12 14 9 6 13 23 26 26 20 21 20 19 23 22 22 23
29 28 28 26 26 23 26 29 24 22 7 3 3 4 15 19 20 22 24 24 16 9 3 3 7 3 4 7 10 12 9 18 13 14 26 21 28 21 23 19 18 23 24 22
29 28 28 26 25 22 16 3 20 30 25 2 2 2 7 22 23 28 25 22 12 10 3 3 3 6 4 4 11 7 11 14 20 21 25 27 25 20 17 20 22 18 19 20
19 24 26 25 25 26 6 4 2 12 22 2 3 3 2 3 6 19 14 18 7 4 5 4 4 5 4 4 20 31 21 22 24 24 25 21 21 19 22 17 19 23 25 25
11 11 11 11 14 11 4 4 4 12 4 4 2 3 2 2 1 1 2 1 2 2 2 1 2 5 4 7 21 24 22 22 21 19 16 17 20 17 16 20 20 20 18 15
17 20 18 11 3 3 5 6 3 2 1 3 2 1 1 3 2 1 1 1 2 3 3 4 5 6 8 16 21 22 24 22 18 18 17 14 12 15 18 20 21 17 15 11
17 7 5 2 4 10 7 4 1 1 1 2 2 1 2 3 2 0 2 1 3 3 6 4 4 12 22 25 24 22 12 13 14 11 11 13 15 16 19 18 13 10 6 8
2 3 2 6 8 3 1 2 2 3 3 3 3 6 4 2 2 3 4 2 2 3 5 4 4 6 11 7 9 11 10 8 6 8 11 14 16 17 15 11 10 8 7 8
4 8 7 4 2 2 2 3 3 4 3 5 3 3 3 2 2 3 3 3 4 7 2 2 4 1 5 5 5 6 7 7 10 12 14 19 21 18 10 7 6 8 8 7
4 4 2 1 2 4 5 6 3 3 2 2 1 2 1 0 2 2 2 4 3 1 3 3 4 5 3 3 6 9 13 8 6 13 19 21 20 15 4 7 9 7 6 5
2 2 4 4 5 5 4 3 3 2 3 3 3 1 1 1 2 2 4 3 2 4 5 8 5 6 6 8 8 9 11 7 7 12 17 14 11 10 11 10 7 4 5 4
2 3 5 6 3 1 4 3 3 3 3 1 1 1 1 2 4 3 4 4 6 5 6 5 6 3 7 10 11 12 9 7 9 17 12 11 12 8 7 7 7 5 4 4
1 2 2 2 1 3 2 2 2 3 3 2 0 2 3 5 4 6 7 5 10 10 5 7 10 11 12 13 11 10 16 18 19 19 17 14 10 10 7 8 9 6 4 3
2 3 2 2 2 1 2 3 3 7 4 2 2 5 9 3 5 6 6 10 11 9 9 9 13 14 14 11 13 16 16 17 19 19 18 16 12 9 7 7 10 6 5 4

GFSNW_925_spd_006.txt.gz
Wind_Speed
7 10 13 17 21 13 5 4 0 5 1 1 3 2 2 3 4 1 4 4 6 5 5 5 5 4 6 7 9 7 6 4 5 18 17 3 5 8 8 3 8 9 12 14
6 9 11 14 18 21 8 3 3 2 1 2 2 5 4 5 1 4 3 3 4 3 4 3 4 5 4 7 6 7 9 3 5 8 5 3 12 19 18 16 2 8 7 10
5 7 10 12 14 17 7 2 3 3 3 3 6 5 4 3 3 3 2 2 1 2 4 2 5 7 3 1 6 7 1 6 6 8 15 18 19 22 24 20 12 17 15 28
5 6 8 10 12 13 6 2 2 3 2 2 4 3 1 4 2 1 2 1 2 3 3 6 4 5 9 9 4 2 3 6 11 17 19 20 23 25 24 23 21 19 24 22
5 6 7 9 11 9 2 4 2 1 2 2 1 2 1 2 4 3 3 3 4 4 5 3 11 12 11 8 11 5 3 4 3 7 19 20 19 22 25 25 22 21 20 21
4 5 6 8 9 9 3 2 1 3 1 2 1 2 2 1 4 4 3 6 8 6 8 9 11 12 14 16 17 15 14 3 2 8 9 11 11 14 16 13 17 17 16 21
5 4 5 6 6 6 5 4 5 4 1 2 4 3 4 4 4 5 6 6 7 7 7 10 10 11 16 18 19 15 10 4 3 3 3 6 7 20 24 20 16 17 19 21
7 6 5 6 4 3 4 2 0 2 1 5 7 6 7 8 6 7 8 9 6 7 5 4 6 4 4 7 12 8 7 5 2 3 8 17 16 17 13 19 13 16 10 19
12 10 8 6 5 3 1 2 1 2 4 4 10 10 10 5 6 8 10 5 3 2 2 2 2 3 4 3 7 8 9 8 1 3 13 15 2 18 19 12 15 12 13 17
16 14 12 9 8 6 5 3 4 5 1 4 6 6 6 7 5 5 3 2 0 3 2 1 4 5 8 5 3 3 2 3 6 10 10 10 14 15 12 7 5 17 14 16
20 18 16 13 10 8 7 7 6 5 2 6 9 10 11 8 4 3 2 3 2 2 3 3 4 3 4 5 8 7 8 6 4 5 5 11 4 12 5 14 17 19 15 13
23 22 20 18 15 12 9 7 7 7 5 5 5 10 17 15 18 8 3 4 4 5 3 3 3 3 2 2 8 14 5 7 7 9 7 20 24 25 16 24 20 18 20 20
23 24 23 22 19 17 15 9 8 3 2 5 8 11 21 19 19 16 7 3 6 6 7 4 3 5 3 4 4 5 6 13 12 16 18 23 24 25 22 21 18 18 18 15
24 24 23 23 21 21 19 17 13 8 2 2 5 17 17 13 15 19 21 20 19 14 5 3 4 3 6 5 9 10 6 9 12 21 23 22 20 19 22 22 19 13 15 13
27 26 26 24 23 21 20 23 24 20 6 3 3 4 15 16 17 18 21 19 12 7 3 3 4 3 3 7 8 7 6 15 10 17 21 19 25 22 25 16 10 15 13 13
31 32 29 28 25 20 15 2 20 33 21 2 3 4 5 18 20 19 20 20 11 10 4 3 4 3 5 4 12 9 14 13 15 17 26 26 24 19 17 15 14 12 14 13
23 27 28 25 24 26 7 4 3 10 22 3 3 3 2 7 10 10 10 18 8 5 4 4 3 3 5 3 11 22 18 19 23 23 17 14 15 12 12 8 15 20 17 18
15 16 17 21 17 13 3 5 5 14 7 4 3 3 3 3 2 2 5 2 2 2 2 1 1 1 2 5 16 19 20 19 18 13 12 11 10 13 13 17 16 13 12 12
14 18 22 16 3 3 6 9 9 5 4 3 2 3 2 3 2 1 2 2 1 2 3 3 3 4 7 10 15 16 17 15 11 10 10 11 12 13 14 15 16 13 10 8
13 5 4 2 3 14 10 4 3 4 2 2 2 2 3 4 1 1 1 1 2 2 4 4 4 9 19 19 18 14 8 7 7 5 7 10 11 13 15 15 13 8 5 6
2 2 2 6 10 3 2 2 1 2 3 3 2 5 1 1 2 2 2 1 2 3 3 4 3 4 9 9 3 5 5 5 6 8 10 13 13 14 14 12 7 2 4 6
4 9 8 4 1 2 2 3 3 3 3 4 3 2 1 2 2 2 3 2 3 6 3 2 4 3 2 1 1 2 5 9 11 12 13 18 19 19 12 12 5 4 7 10
5 4 2 2 2 4 4 6 3 4 2 1 1 2 2 2 3 1 2 4 5 3 3 3 3 3 6 1 4 7 12 9 10 16 22 23 22 21 15 12 10 9 9 7
1 2 3 4 4 4 2 2 2 2 2 3 3 2 1 1 1 2 3 4 3 4 5 5 1 5 4 5 5 7 10 5 7 12 18 19 17 18 17 13 14 10 7 6
2 1 3 5 1 5 3 2 3 2 1 1 2 2 2 1 2 3 3 4 6 6 4 2 6 4 5 6 8 10 2 5 7 17 15 15 18 11 13 14 10 9 8 8
1 2 2 2 1 2 1 1 1 2 3 1 1 1 2 4 4 6 8 5 7 4 3 6 7 7 5 6 9 5 8 9 13 19 18 17 17 12 12 11 12 10 12 11
2 3 1 1 2 2 2 2 4 6 3 2 2 3 8 3 5 7 5 6 7 6 6 7 9 11 10 10 10 11 14 16 18 19 18 17 17 17 14 8 10 13 13 11

GFSNW_925_spd_009.txt.gz
Wind_Speed
7 11 14 18 22 19 6 4 3 6 5 3 1 3 4 1 2 0 2 6 6 5 6 5 6 4 4 4 5 3 4 2 3 10 16 10 5 6 5 2 5 4 4 10
5 9 12 15 19 22 8 3 2 2 2 3 2 2 4 6 6 6 5 3 5 3 2 3 5 3 3 4 3 3 2 3 3 8 6 7 5 14 13 9 1 9 3 8
4 7 10 12 14 17 11 2 3 4 4 1 6 5 5 4 3 3 3 2 2 4 6 6 4 4 4 4 2 7 6 2 5 5 5 6 10 18 20 12 3 8 11 22
4 6 8 11 12 14 7 2 0 4 2 5 6 6 4 6 4 2 2 2 3 4 3 5 4 6 6 8 7 5 6 5 6 8 7 10 16 20 21 16 16 13 24 19
2 5 8 10 11 10 4 3 2 4 2 6 6 5 5 6 6 4 4 3 7 6 3 2 4 5 4 4 3 5 2 5 1 6 12 11 8 21 21 20 15 12 13 18
1 4 7 10 11 8 6 3 3 4 5 3 4 2 3 5 5 2 3 4 3 4 1 2 2 3 5 8 9 4 5 3 2 12 3 5 7 13 4 6 12 11 7 4
2 2 5 8 9 12 5 5 4 4 3 3 2 4 3 3 2 2 3 5 2 3 5 5 6 6 6 5 13 6 4 3 2 4 2 4 8 14 21 17 8 8 8 14
5 2 3 6 7 6 8 6 3 3 1 2 5 5 2 5 3 1 2 1 5 2 6 4 6 5 6 6 5 5 5 5 1 2 3 9 9 9 3 11 16 4 10 19
8 4 1 2 4 4 4 6 4 5 5 4 5 3 2 2 3 5 2 5 9 6 3 4 1 3 4 4 4 6 8 7 3 2 4 6 7 4 8 10 11 7 16 11
12 9 6 2 1 3 3 2 4 2 2 4 1 2 2 1 0 2 0 2 2 4 2 2 3 4 3 3 4 3 3 2 2 3 5 7 7 5 1 4 9 12 9 10
17 14 11 7 4 2 2 2 4 1 2 4 3 2 3 3 2 4 3 4 4 3 2 3 3 4 4 2 4 3 5 3 4 2 5 8 2 8 5 10 9 18 14 6
20 18 15 12 9 6 4 1 1 1 3 4 5 9 12 6 2 3 1 5 3 4 3 3 2 3 1 4 6 3 3 7 4 9 6 6 13 12 12 19 19 16 11 7
23 21 19 17 14 12 9 7 7 1 2 4 3 7 17 16 16 11 3 3 5 4 6 5 4 4 3 4 5 5 2 4 6 6 4 17 17 19 18 15 12 8 9 9
24 23 21 21 18 16 14 13 10 5 3 2 5 14 14 18 17 17 16 17 13 5 1 2 3 3 6 4 6 8 5 5 8 14 18 19 14 11 14 7 6 4 6 10
23 22 21 20 19 17 16 17 18 14 5 3 3 5 14 14 12 17 19 19 7 2 1 2 4 3 2 3 1 3 7 15 8 15 17 13 19 8 7 6 3 8 4 7
26 23 22 21 18 15 10 2 19 28 20 2 2 3 3 14 22 20 19 17 5 4 4 4 3 5 5 4 7 9 14 10 13 11 11 16 9 12 6 5 5 9 6 4
22 24 25 23 20 20 7 5 4 16 23 2 3 3 2 4 2 3 3 7 2 3 3 4 3 4 4 2 11 18 14 9 13 19 16 6 4 4 5 8 10 12 9 7
17 16 13 15 15 11 4 4 8 16 6 3 2 3 3 3 1 1 5 2 2 2 2 1 1 2 2 5 11 10 7 10 11 2 6 5 5 7 6 10 10 6 2 1
10 12 11 11 3 4 5 9 11 7 3 3 2 2 2 1 1 1 2 2 1 2 2 2 3 2 6 7 7 7 8 1 4 9 8 9 8 6 7 6 8 4 2 1
17 7 5 2 3 17 12 3 3 3 3 2 2 1 2 3 1 1 1 1 2 2 4 1 3 6 10 12 13 8 6 6 8 6 3 3 4 5 7 7 5 4 4 5
3 4 2 7 11 2 3 2 1 1 2 3 2 3 1 2 2 2 1 1 1 2 4 3 3 3 4 4 5 7 7 7 4 6 6 7 7 10 11 10 9 11 10 8
4 13 10 5 1 2 2 3 2 3 3 3 2 2 1 2 1 2 1 1 1 5 3 1 3 4 4 5 7 10 8 9 7 10 7 14 16 18 16 13 14 11 12 13
4 5 3 2 1 3 4 5 3 2 1 0 1 2 2 2 3 1 1 3 4 2 1 3 4 4 7 7 6 7 10 10 10 11 13 15 18 23 22 18 24 16 13 14
3 2 3 4 3 3 1 1 2 1 1 2 3 2 2 1 2 1 2 4 1 3 3 4 3 5 6 7 6 8 8 5 7 9 13 16 18 19 25 21 23 14 15 10
2 2 3 4 2 3 2 2 2 1 1 2 2 2 2 1 1 3 1 3 4 5 4 2 2 3 4 3 4 6 6 6 6 12 12 17 21 20 19 21 20 18 14 12
2 1 1 1 3 2 1 1 2 1 1 2 2 2 2 3 3 2 6 2 6 3 1 3 2 2 3 4 5 7 11 12 14 19 22 22 21 19 18 20 20 18 18 12
1 2 0 2 2 1 3 3 2 5 3 2 2 2 9 1 2 3 4 5 3 2 3 2 4 5 7 6 10 15 16 15 19 21 23 24 26 12 15 14 20 18 15 13

GFSNW_925_spd_015.txt.gz
Wind_Speed
6 9 11 13 16 4 3 4 3 7 4 4 2 2 3 2 4 6 5 4 3 2 2 4 3 3 2 1 1 2 1 3 3 3 7 4 4 5 4 3 3 2 3 7
4 7 10 12 13 14 3 3 1 3 2 3 2 2 4 3 3 4 3 2 3 4 2 3 2 3 2 3 2 1 1 2 3 6 6 4 4 3 3 3 2 6 3 5
3 6 8 9 11 11 4 3 2 4 4 1 6 4 2 3 2 3 4 3 5 4 5 5 2 3 5 6 3 6 5 2 5 5 5 4 6 4 3 5 3 4 11 17
2 3 6 8 9 7 2 3 1 2 1 4 3 3 2 4 2 2 6 5 4 3 2 2 2 2 4 3 2 3 3 2 3 5 7 7 13 12 16 7 10 6 10 11
2 2 5 6 7 3 5 4 4 3 2 2 2 4 1 5 2 2 2 6 1 4 4 4 3 3 2 4 2 3 2 3 3 4 7 9 15 13 11 12 9 8 9 9
3 0 3 6 6 1 4 2 3 4 4 2 4 2 1 3 5 5 5 8 4 2 3 4 3 5 4 4 5 3 2 4 1 5 5 9 6 7 4 4 5 5 5 5
4 1 2 5 7 2 6 3 4 4 2 2 3 1 2 3 1 6 3 4 4 2 4 3 4 3 4 2 5 7 5 4 2 3 3 2 8 3 6 9 9 6 4 3
7 3 3 5 7 7 9 5 4 3 1 1 3 2 4 3 4 3 2 2 1 8 6 4 6 5 7 3 5 1 5 5 3 3 4 6 10 10 2 4 6 5 5 4
9 6 4 5 6 7 8 10 7 6 5 4 0 3 2 3 2 5 3 4 5 7 3 4 4 3 4 4 3 4 5 5 3 2 4 5 8 3 1 3 7 5 2 6
11 7 4 3 4 4 4 5 6 5 3 3 3 3 4 5 3 3 3 2 3 3 2 2 3 4 3 3 3 3 2 1 4 3 7 8 10 7 1 4 5 7 5 11
13 10 7 4 3 4 3 5 4 3 3 3 4 2 4 2 3 4 4 4 3 3 2 3 3 3 5 1 4 5 5 3 5 2 3 8 5 1 5 8 3 4 5 3
16 13 10 6 3 3 4 3 4 4 3 2 4 5 6 4 7 5 2 4 4 4 3 2 2 3 1 4 4 3 4 8 4 9 6 4 5 5 7 4 6 3 1 2
18 16 13 10 6 4 3 4 4 3 4 3 3 5 10 12 13 11 4 3 3 4 4 4 3 4 3 4 5 3 4 4 4 5 6 15 10 14 15 5 3 2 2 4
21 19 16 13 10 8 6 4 4 2 6 2 5 4 7 6 12 17 19 9 4 6 3 3 3 3 6 4 5 7 6 3 5 10 16 14 14 6 6 1 5 7 10 8
23 21 20 16 13 11 9 8 8 8 2 3 4 10 10 11 12 18 17 15 4 3 1 2 3 2 2 2 2 4 6 7 6 10 15 13 14 3 3 8 7 2 4 10
24 23 20 18 16 14 6 2 13 17 11 2 2 5 5 5 6 13 11 12 3 3 3 3 3 3 4 4 4 6 10 8 13 14 14 6 5 8 5 8 2 9 11 12
25 20 20 19 17 18 6 4 3 16 17 2 3 3 3 3 1 2 2 0 2 3 2 3 3 4 4 2 10 11 10 9 10 9 4 5 10 3 5 7 12 13 16 16
24 22 18 15 17 16 8 9 3 18 6 3 3 2 3 0 1 1 3 0 1 1 2 1 2 1 2 4 6 5 4 5 2 5 7 8 9 1 7 14 13 10 9 9
18 17 17 14 4 4 3 6 9 8 3 3 2 3 3 1 0 1 2 2 1 1 1 2 1 1 4 3 4 7 5 5 6 11 12 13 11 7 6 6 8 9 11 9
23 14 4 2 2 12 11 3 2 3 3 2 2 1 1 1 1 1 1 2 1 2 2 2 2 2 3 10 7 6 8 11 7 6 6 2 3 4 7 7 8 9 10 13
4 4 2 9 6 3 4 2 2 1 1 1 1 2 1 2 2 2 1 1 1 2 3 2 2 2 4 7 10 10 13 14 9 7 3 7 8 9 7 8 11 15 16 15
9 18 10 4 3 2 2 1 1 1 3 2 2 2 2 0 1 2 1 1 1 4 2 1 2 2 2 4 6 5 4 2 5 6 8 12 13 17 14 14 17 21 25 27
8 5 3 2 2 1 5 6 2 2 2 3 2 1 1 1 2 2 2 2 4 1 1 3 3 3 3 2 1 2 5 6 7 12 15 16 19 23 22 19 26 28 24 22
3 3 3 3 2 2 3 3 2 2 1 2 3 2 1 1 3 1 2 2 1 2 2 5 1 2 2 3 3 3 6 10 12 15 18 20 20 21 27 26 26 23 23 21
3 3 3 3 2 1 1 1 1 1 2 2 2 2 2 1 2 1 0 1 3 4 4 2 3 4 3 3 4 6 6 9 11 16 16 21 23 22 23 30 28 25 28 25
3 4 3 1 2 1 1 1 1 1 2 2 3 2 3 3 3 2 5 5 6 4 3 3 2 3 3 5 7 13 17 17 17 19 20 21 21 20 23 30 31 30 26 22
3 1 0 2 2 3 2 2 3 7 2 2 3 3 8 2 3 2 4 4 3 3 3 2 2 3 6 11 15 18 20 18 18 20 22 22 25 27 22 15 24 27 26 19

GFSNW_925_spd_018.txt.gz
Wind_Speed
9 11 13 14 14 3 3 4 3 5 1 4 1 3 3 0 2 6 4 4 3 3 3 3 2 2 2 4 2 3 2 4 3 4 3 1 3 3 4 4 2 1 3 6
8 10 12 14 14 6 3 3 1 3 1 3 2 1 3 3 3 4 3 3 3 4 3 4 2 3 3 5 3 2 1 2 4 8 5 5 5 1 4 5 3 6 3 6
7 9 11 12 13 8 3 3 2 4 4 1 6 4 2 3 4 4 5 3 5 4 5 6 2 2 3 5 3 6 5 2 5 5 7 3 4 4 4 5 2 3 11 17
5 8 10 12 12 8 2 3 1 2 0 3 4 3 2 4 2 3 6 4 4 4 3 2 2 1 4 4 4 3 3 2 4 6 9 7 9 11 9 9 8 7 13 8
4 6 9 11 10 6 5 4 4 3 2 2 4 4 1 4 2 2 1 6 2 3 4 4 5 3 2 4 3 2 3 3 0 4 5 5 8 12 13 10 6 13 14 16
3 5 8 9 8 4 4 3 3 4 4 2 4 2 4 5 5 5 3 8 4 3 3 4 1 4 0 1 3 3 0 2 2 5 3 8 7 6 5 3 5 5 6 9
3 2 6 8 8 2 4 3 4 4 2 2 3 1 2 4 2 6 3 4 4 3 4 3 5 5 5 1 3 3 5 4 2 4 5 1 6 3 6 8 10 8 7 4
4 0 3 5 8 6 5 6 3 3 1 1 2 4 5 4 4 4 3 3 1 5 6 4 5 5 6 3 5 2 4 4 2 3 4 6 10 8 1 5 7 4 4 2
6 2 2 4 4 6 10 11 7 5 6 4 2 4 2 3 2 4 2 2 3 6 3 4 3 3 4 4 3 5 5 5 3 1 5 5 7 3 1 2 7 1 4 5
8 4 1 3 4 4 4 7 6 5 4 3 3 3 5 5 3 3 2 3 3 3 2 2 3 4 3 3 3 3 1 0 5 5 5 7 9 6 1 4 6 4 3 5
11 7 3 2 4 4 3 8 7 3 3 2 4 2 4 2 2 4 3 4 3 3 3 3 4 3 5 2 4 5 5 4 4 1 2 8 5 2 4 6 4 4 5 4
13 10 6 3 2 3 5 4 6 6 6 3 2 3 2 2 6 5 0 2 4 5 4 2 3 2 1 4 3 2 4 7 4 8 7 4 5 7 6 2 6 5 2 6
16 12 9 5 2 2 3 7 5 4 3 3 3 2 3 8 9 6 4 3 3 2 2 4 2 3 4 4 6 5 4 4 4 2 6 13 8 12 8 3 2 2 6 7
18 15 13 9 6 4 3 3 5 6 6 3 5 5 4 3 9 12 10 5 6 7 3 2 3 2 5 4 4 5 5 3 4 7 15 14 13 12 4 5 10 8 4 2
21 18 15 12 9 7 4 4 5 5 3 3 3 12 6 6 7 12 12 6 4 2 2 2 3 2 1 2 2 3 5 7 5 10 13 10 6 10 13 13 9 4 7 7
23 20 18 15 13 11 4 2 10 13 6 3 2 3 1 2 3 5 8 9 3 3 3 3 3 3 4 3 3 4 13 13 14 15 7 4 9 13 12 4 3 9 8 13
24 23 19 17 17 17 5 4 3 17 11 3 2 3 3 3 3 3 2 1 2 3 2 2 3 3 4 1 9 8 11 9 5 4 6 4 2 3 3 4 7 10 15 16
27 22 19 18 18 19 6 5 5 21 6 3 2 3 3 2 2 1 3 1 1 1 2 1 1 2 1 3 3 6 5 4 11 11 12 8 7 4 5 12 13 7 8 12
26 23 22 17 6 5 5 8 11 15 2 3 2 4 3 2 1 1 2 1 1 1 0 1 2 1 4 4 7 7 7 5 9 9 11 10 8 6 7 8 8 7 7 9
26 17 5 1 3 15 12 4 3 2 3 3 2 2 2 2 1 1 1 2 1 2 1 2 2 1 3 6 6 7 10 10 8 6 7 6 6 8 8 8 10 10 10 16
3 4 2 8 6 5 5 2 2 0 1 1 1 2 1 3 2 2 1 1 1 1 3 1 1 2 3 1 4 4 6 6 4 3 4 8 9 8 10 10 13 16 18 16
9 17 10 4 2 2 3 2 1 2 3 2 2 1 0 1 1 2 0 2 1 4 1 1 2 3 4 4 4 4 1 3 4 5 9 15 15 17 17 17 18 20 26 30
8 5 4 2 3 2 4 6 2 2 2 2 2 2 1 1 3 2 1 2 3 1 1 3 3 4 4 4 1 4 7 8 9 12 17 19 20 24 25 20 27 28 26 30
3 3 3 2 1 1 3 2 3 1 1 2 2 2 1 1 2 1 2 1 1 1 1 5 1 3 3 2 2 3 6 12 12 14 18 20 22 23 28 28 27 25 24 30
3 3 3 2 2 1 1 0 2 1 2 2 2 2 2 1 3 1 2 1 3 4 4 2 3 3 2 3 3 7 6 12 12 18 17 21 24 22 24 30 28 28 29 28
3 4 4 1 2 1 1 2 2 1 2 2 3 2 3 2 3 2 5 5 5 3 3 3 1 2 4 5 8 13 17 18 17 18 20 20 22 22 24 31 29 27 26 27
3 1 1 3 1 3 3 2 2 7 2 2 3 3 6 2 2 2 4 5 3 4 3 2 3 4 7 12 15 18 20 18 19 20 22 22 25 25 22 17 26 26 26 25

GFSNW_925_spd_021.txt.gz
Wind_Speed
9 12 14 16 15 3 5 4 3 4 3 4 1 3 5 2 1 4 3 4 3 3 3 3 3 3 1 4 0 2 1 2 2 1 1 0 2 2 3 2 2 1 1 7
8 11 14 16 16 3 3 3 1 4 2 3 1 1 3 3 2 4 2 3 3 3 3 4 2 3 1 4 3 1 2 2 3 2 3 2 3 1 3 4 2 6 3 6
7 10 13 15 15 8 2 3 2 4 4 1 6 5 2 4 3 4 5 4 4 4 4 5 3 2 2 3 2 6 4 2 4 4 4 1 5 4 4 4 3 4 12 17
4 8 11 13 12 8 2 3 1 1 1 2 4 3 3 4 3 3 4 4 3 4 3 2 2 1 2 2 1 2 2 2 3 5 10 4 8 12 11 13 13 8 16 16
3 7 10 11 10 6 4 4 4 3 2 2 4 4 2 4 3 2 2 6 2 3 4 3 4 3 2 3 2 2 2 1 1 4 5 4 8 14 14 13 14 13 18 22
1 5 9 10 9 4 4 3 3 4 4 2 4 2 4 5 5 5 2 8 5 4 4 3 2 2 3 1 3 3 1 3 2 4 4 8 7 4 4 3 6 5 7 10
1 3 7 9 9 4 4 3 5 4 1 2 3 3 3 4 2 6 3 3 5 2 4 4 4 6 5 3 3 0 4 4 2 3 4 2 2 2 6 6 15 9 11 10
3 2 5 8 10 6 6 5 3 3 2 1 2 5 5 5 5 4 3 3 2 5 5 3 4 4 5 2 6 3 2 4 2 2 3 7 10 4 1 5 9 3 3 1
5 2 4 6 7 7 11 12 7 5 6 4 3 4 3 4 3 3 3 3 4 5 3 3 2 2 3 3 1 5 4 4 1 2 3 5 4 2 1 3 8 2 1 9
7 4 4 5 7 7 5 8 6 4 4 3 3 3 4 4 3 3 1 3 2 3 2 2 3 3 1 2 3 3 0 1 5 7 6 8 7 4 1 1 5 4 3 8
9 6 4 5 6 5 5 9 9 3 3 2 3 3 4 3 2 4 4 3 2 3 3 3 3 3 4 1 2 4 4 4 4 2 4 7 4 1 3 3 5 11 10 9
11 8 5 4 5 5 5 5 7 8 8 3 3 3 3 2 6 5 0 3 4 4 4 2 3 3 1 3 3 0 4 6 3 9 7 3 2 5 6 6 8 4 3 10
12 10 8 5 4 5 5 8 6 5 3 3 2 1 2 5 4 2 4 2 3 3 1 4 2 4 4 4 6 3 3 3 4 2 7 8 10 12 5 7 10 11 9 6
15 12 9 7 4 4 5 5 7 7 7 3 3 3 0 3 6 8 3 8 8 7 2 2 3 2 4 4 3 5 6 3 4 8 14 14 7 5 7 9 9 7 1 1
17 14 11 9 7 4 4 5 4 4 3 4 3 8 2 4 4 8 8 14 5 2 2 2 3 1 2 1 0 4 5 6 4 6 11 11 3 6 6 7 3 2 4 9
20 17 15 12 10 8 4 3 7 8 4 4 1 3 4 4 3 3 5 9 2 3 3 3 2 2 3 2 3 4 11 8 10 10 4 5 9 7 3 2 3 7 9 10
23 20 18 15 13 12 4 3 2 13 6 3 2 3 2 2 4 4 3 2 1 2 2 3 3 2 4 2 2 1 6 8 8 6 8 6 4 3 2 4 9 13 12 12
24 22 18 16 17 15 7 5 10 16 6 4 2 3 2 1 1 1 2 1 1 1 1 1 2 1 1 3 3 7 5 10 12 13 14 11 6 3 5 9 13 13 12 13
24 20 20 12 6 5 5 13 19 9 4 3 3 4 3 2 1 1 1 0 1 1 1 1 2 2 4 1 3 4 6 5 8 6 6 3 2 6 8 10 11 12 13 16
27 19 6 1 2 16 16 4 2 3 2 3 2 1 2 1 1 1 2 2 1 2 1 2 2 1 4 5 7 7 6 6 4 2 4 4 7 8 9 10 13 14 17 20
7 4 2 9 10 3 4 2 2 2 1 0 1 1 2 3 2 2 1 1 1 2 1 2 2 2 4 5 4 3 3 2 2 1 3 6 7 9 10 11 14 16 18 18
8 18 11 5 3 2 3 2 2 2 3 1 2 2 2 1 1 2 0 2 1 3 1 1 2 0 7 6 4 3 2 1 4 6 8 10 11 12 12 14 16 19 24 28
7 5 3 2 1 3 4 5 1 3 3 3 2 2 1 1 3 2 1 2 2 0 1 3 1 4 6 5 2 1 2 6 9 10 13 15 17 21 20 18 24 25 23 27
3 2 4 1 2 1 2 2 3 2 3 4 2 3 1 1 2 1 2 1 1 1 2 4 2 5 5 3 2 2 4 11 11 13 15 16 19 21 25 25 25 24 23 28
3 2 2 1 1 3 2 1 2 2 3 3 3 3 2 1 2 1 3 2 2 4 3 2 3 3 1 3 3 5 5 11 11 13 14 19 22 20 23 27 25 25 26 25
3 4 4 1 2 2 1 1 2 1 3 2 3 3 2 1 2 2 4 4 6 3 2 2 2 2 3 4 7 13 15 15 15 15 17 18 20 20 20 27 27 23 24 26
4 2 2 2 2 3 2 1 2 5 2 2 2 3 3 2 2 2 4 4 3 3 2 2 3 4 5 10 13 16 17 15 15 17 19 19 21 21 20 16 23 24 23 24

GFSNW_925_spd_024.txt.gz
Wind_Speed
7 10 12 13 5 8 7 3 3 2 5 3 1 3 4 2 4 2 3 4 5 4 3 3 3 4 2 1 1 2 3 1 2 2 2 2 1 1 0 2 2 2 4 8
6 8 11 13 7 8 5 2 3 4 1 4 3 4 4 3 3 3 3 3 2 3 4 4 5 4 2 1 1 2 1 0 2 3 5 4 4 3 1 2 0 9 5 4
4 7 10 11 8 4 4 2 3 2 2 1 8 9 6 5 4 4 5 5 5 7 4 4 6 5 3 1 2 3 1 2 3 4 7 4 8 9 7 10 5 7 14 16
3 6 8 10 7 4 3 2 2 2 4 3 8 4 6 10 5 3 1 4 3 5 4 4 4 4 5 3 3 1 2 3 3 8 11 14 13 15 13 16 17 11 18 17
2 6 8 9 6 4 4 2 3 2 3 4 9 1 6 9 6 3 4 7 7 5 5 2 6 5 3 3 4 2 0 1 2 4 7 10 13 16 15 16 16 17 18 19
2 5 7 9 6 3 3 2 2 1 1 3 4 3 7 8 8 4 3 13 10 8 8 6 6 4 4 2 2 3 2 2 0 3 8 14 5 4 2 4 6 8 12 12
3 5 7 9 6 4 5 3 3 3 3 2 3 7 5 11 3 7 7 4 5 4 9 9 6 7 5 1 2 1 4 3 1 2 4 3 3 7 11 14 14 10 12 11
3 4 6 7 8 3 6 6 2 3 3 2 5 8 9 9 7 8 7 5 4 8 2 2 3 1 2 3 6 2 3 3 3 2 3 13 12 3 2 3 15 10 6 5
6 4 5 6 6 8 10 10 6 3 6 4 4 6 8 6 5 4 3 4 3 2 2 2 2 1 1 2 4 4 3 3 2 2 3 5 5 4 3 4 9 6 9 12
7 5 5 5 7 6 4 6 5 2 3 2 3 3 6 4 4 4 4 5 2 2 2 2 2 3 2 3 3 4 3 2 4 6 6 8 8 4 1 4 4 9 15 14
9 6 4 5 5 4 4 7 6 2 3 4 1 2 4 4 4 5 6 5 2 2 2 3 3 2 3 3 1 3 4 6 4 2 4 6 1 4 3 10 14 15 14 8
11 8 5 4 4 5 5 4 8 10 6 3 2 2 2 2 2 4 6 0 4 5 4 3 3 3 1 2 3 4 5 6 3 6 7 9 10 13 12 11 11 5 4 4
11 9 6 5 4 4 3 8 6 5 3 3 3 2 0 2 1 2 3 1 3 4 3 4 2 3 5 4 5 8 7 8 4 7 10 14 12 16 8 6 6 4 4 3
12 11 8 5 4 5 5 5 6 6 6 4 2 2 2 1 3 2 1 8 8 7 2 2 3 2 5 3 4 6 8 8 11 14 15 15 6 5 7 6 4 2 3 4
14 12 10 8 5 5 6 7 5 5 0 3 1 1 2 4 1 4 5 11 6 3 2 2 3 2 3 1 1 4 11 17 6 5 8 4 5 9 7 6 2 2 6 9
16 14 12 10 8 7 3 1 4 4 5 3 2 2 1 4 2 6 6 7 3 2 3 3 2 1 3 3 3 6 7 9 9 5 7 8 10 7 5 2 3 6 11 14
19 17 15 13 11 10 2 1 2 9 5 3 1 1 2 2 2 2 2 1 1 2 2 2 2 3 4 2 4 3 1 3 5 6 9 6 2 3 4 4 9 12 16 16
23 19 16 14 14 10 3 3 11 11 6 3 3 1 1 1 2 2 2 2 0 1 1 1 2 1 2 3 3 2 6 7 7 7 6 7 7 4 5 9 12 13 13 17
26 22 19 12 6 6 6 11 15 9 2 3 2 5 4 4 2 2 1 0 1 1 1 2 2 2 5 2 4 3 8 4 8 7 4 2 2 6 8 11 12 14 15 19
30 21 6 1 5 14 18 4 1 3 2 2 2 1 3 3 3 2 3 0 1 2 1 2 2 2 1 4 7 7 9 8 6 3 1 4 7 9 11 11 14 16 18 21
8 4 2 8 15 3 4 1 2 2 1 1 2 2 3 2 2 2 1 2 2 2 2 2 2 3 5 10 9 7 6 5 3 3 5 8 9 10 11 13 16 17 18 19
9 19 13 5 3 3 3 3 2 3 4 3 3 2 2 1 0 2 2 2 2 2 1 2 3 2 11 11 8 7 6 3 2 5 8 10 12 12 13 15 16 18 21 22
8 7 3 2 1 3 6 7 2 3 4 4 3 3 2 1 2 3 2 4 2 1 2 3 0 7 10 9 7 6 4 1 5 10 11 13 13 14 14 15 19 19 20 21
2 2 4 0 3 2 2 3 3 2 3 5 4 3 2 1 2 1 2 2 2 3 4 4 3 10 10 7 4 4 5 4 7 11 13 11 14 16 19 18 20 20 20 23
3 1 3 2 2 2 3 3 2 2 4 4 4 3 1 2 2 1 2 4 4 4 2 2 6 9 7 4 4 6 6 7 9 12 12 14 17 15 17 18 17 17 21 19
2 3 3 2 2 2 1 2 3 1 2 2 2 2 3 2 2 3 5 3 5 1 2 4 7 5 4 3 5 9 11 12 13 13 13 14 15 14 17 20 20 18 16 17
3 2 2 2 2 3 2 1 3 6 2 2 2 4 2 3 3 3 4 3 0 3 4 3 4 5 5 7 10 12 12 12 13 14 14 15 15 14 14 16 19 16 17 18

GFSNW_925_spd_027.txt.gz
Wind_Speed
4 6 8 4 11 12 9 4 5 2 4 7 4 4 5 1 8 3 2 1 3 5 5 3 3 5 5 2 3 3 5 2 2 4 3 4 5 5 5 4 6 3 5 8
3 5 8 5 11 13 5 2 4 2 4 5 6 4 6 3 8 4 5 3 1 3 5 3 6 6 3 3 3 6 5 0 3 5 6 5 4 2 4 5 3 11 8 7
2 4 7 6 7 10 4 3 3 4 5 3 10 10 9 7 2 4 3 6 6 8 6 4 7 7 4 2 4 3 2 2 3 5 9 8 8 10 10 10 8 12 12 17
2 4 6 6 4 6 3 2 2 1 7 6 9 10 10 10 6 3 6 4 4 8 4 7 5 7 6 4 4 2 3 3 4 7 11 12 14 13 14 16 16 15 18 19
2 3 5 6 3 5 2 2 3 2 2 5 9 4 9 12 5 8 8 7 8 6 8 2 7 5 3 3 4 2 1 1 4 4 6 12 17 16 16 17 13 12 14 15
3 3 5 5 2 2 1 2 1 2 2 7 8 7 9 9 9 2 2 10 8 9 8 9 9 7 5 3 2 4 1 1 2 4 9 14 6 3 7 7 7 11 11 12
4 2 4 6 3 3 1 2 2 3 4 7 7 7 8 11 6 8 9 6 8 5 8 8 5 6 5 2 3 3 3 1 2 3 5 2 7 16 14 12 9 10 12 12
5 3 4 5 5 2 4 3 1 3 2 5 5 9 12 9 10 12 11 6 5 9 2 2 2 1 3 1 2 1 4 4 2 2 4 14 12 3 6 9 15 11 5 8
6 4 3 5 5 6 6 5 3 3 6 4 8 9 12 10 7 6 5 5 4 2 2 2 2 3 2 5 6 4 3 1 4 3 4 4 6 9 4 7 11 5 10 18
7 5 4 4 5 5 4 4 4 0 3 3 4 5 8 3 7 4 5 6 4 2 2 2 2 3 2 3 2 4 3 2 6 7 6 9 9 4 3 5 3 15 15 10
8 6 4 3 3 3 6 3 5 3 3 5 1 2 5 3 6 5 8 5 2 2 2 4 4 1 4 2 4 5 7 6 4 3 3 6 2 5 5 7 12 11 11 8
10 7 5 3 3 3 5 3 6 8 3 4 3 4 4 5 8 1 9 1 5 5 3 3 2 2 0 1 3 5 4 7 4 8 5 9 8 7 3 5 4 5 2 3
10 8 6 4 3 3 4 4 2 4 3 3 4 3 3 4 4 3 3 1 2 4 4 4 3 3 5 4 5 8 6 10 5 7 7 12 11 7 9 8 6 3 1 2
11 9 6 5 4 4 5 4 2 3 5 3 3 1 3 3 1 1 3 7 7 7 3 2 3 3 7 4 6 7 8 10 10 13 16 12 10 9 6 5 3 1 3 6
11 10 8 6 5 6 6 6 4 4 3 3 2 3 1 2 1 4 3 8 5 2 2 2 3 3 1 2 3 8 8 13 9 7 3 1 2 5 4 4 1 3 6 9
13 11 9 7 6 6 3 2 1 2 3 3 2 3 1 0 2 5 6 7 2 2 3 3 3 3 3 4 4 6 6 6 6 2 4 5 8 4 5 3 3 7 11 14
15 13 10 8 7 2 2 1 2 5 3 2 2 2 2 0 3 2 3 4 0 3 2 3 3 5 3 2 6 9 2 0 3 9 10 5 5 3 6 5 8 10 14 16
17 14 12 11 8 4 2 3 8 6 5 3 3 2 2 3 2 2 0 2 1 2 2 1 3 1 1 4 6 5 5 5 6 4 3 2 6 5 5 6 10 11 12 16
20 16 13 8 5 5 3 7 7 1 1 3 3 5 4 4 2 2 1 1 2 2 1 2 2 3 5 6 6 7 9 6 6 5 5 5 0 3 6 9 11 12 12 16
24 18 6 1 5 9 12 3 2 3 2 2 3 3 4 4 2 2 3 0 1 2 2 2 2 3 2 4 4 6 9 8 10 7 3 1 4 6 8 10 13 14 15 17
10 4 2 5 15 4 2 2 3 1 1 2 2 5 4 1 3 3 1 2 2 3 2 3 2 3 6 10 10 10 12 10 5 2 2 5 6 8 10 10 12 14 16 17
8 15 11 4 2 2 3 3 2 4 4 3 3 2 2 2 1 2 1 3 2 3 3 2 3 2 9 11 11 10 9 7 3 1 5 8 10 12 12 13 15 15 17 20
8 7 3 1 1 3 6 8 3 4 4 4 3 2 2 2 2 2 3 4 3 1 2 3 0 6 9 9 8 8 8 4 1 6 10 12 12 12 11 14 16 17 16 16
3 2 3 2 3 0 1 3 4 3 3 6 4 2 2 1 2 1 3 2 2 3 3 4 2 7 9 8 7 5 6 6 2 10 13 11 12 12 14 19 19 19 17 20
2 1 2 2 2 3 2 2 2 2 3 3 4 3 1 2 2 0 3 4 3 4 2 2 3 7 7 6 4 4 4 4 9 13 13 12 15 15 15 15 16 14 21 22
2 1 2 1 2 2 3 4 3 3 2 3 2 2 1 2 1 2 3 1 3 2 2 2 6 7 5 4 2 5 9 12 14 14 14 14 15 17 17 16 20 22 18 18
2 2 2 3 3 3 2 1 2 2 1 2 2 1 3 2 1 2 2 2 2 2 3 3 5 6 5 5 7 8 11 13 14 14 15 15 16 16 15 15 17 17 16 19

GFSNW_925_spd_030.txt.gz
Wind_Speed
1 2 2 8 13 15 9 4 3 6 9 5 6 8 1 2 7 3 2 4 1 4 4 3 4 8 7 2 3 5 4 2 1 7 6 4 3 4 3 1 5 3 4 8
1 2 3 7 15 17 4 3 4 4 5 5 6 2 5 5 8 8 5 2 1 2 5 3 5 8 3 3 6 4 4 1 3 8 5 4 1 4 5 4 3 4 4 5
1 2 4 5 14 16 3 3 3 4 5 8 11 7 7 6 4 6 1 5 4 5 5 3 6 9 4 3 8 2 3 1 1 2 6 7 7 10 10 10 3 6 10 15
1 2 4 3 8 10 4 3 5 6 7 7 6 11 9 9 6 4 5 5 6 6 3 6 6 10 7 4 3 2 3 1 5 6 9 9 10 13 13 15 13 11 12 15
2 2 4 4 4 7 3 4 2 2 4 11 9 5 6 11 8 9 9 5 7 8 7 3 7 6 5 4 4 2 3 1 4 3 6 9 16 17 11 8 11 11 9 12
3 2 4 4 3 5 5 2 2 2 1 4 6 6 8 9 9 2 4 6 7 9 12 12 11 10 8 5 4 4 2 1 2 3 9 10 3 2 11 11 10 7 7 9
3 3 4 4 2 1 3 2 1 3 3 6 8 8 7 8 9 6 7 7 9 8 10 9 8 10 7 1 6 3 5 2 2 3 4 2 7 14 6 8 10 13 12 8
3 3 4 5 4 4 3 2 2 3 2 7 3 8 7 11 6 9 12 9 8 9 5 3 2 2 4 1 4 3 2 4 2 1 3 10 9 9 4 6 11 9 11 14
5 3 4 6 6 7 5 5 5 3 5 2 6 6 11 8 9 7 4 3 5 0 3 3 3 3 3 6 6 9 2 7 2 2 2 3 4 10 6 6 6 10 10 10
6 3 4 5 6 7 5 4 4 1 3 3 5 6 8 8 8 4 7 5 2 2 2 2 2 3 2 4 5 4 3 1 4 5 4 6 8 8 4 4 3 9 7 6
7 4 4 4 4 6 6 4 6 4 2 3 4 3 2 1 5 4 8 4 1 2 3 3 3 1 3 0 4 7 6 6 4 3 3 6 4 8 2 5 8 6 6 4
8 5 4 4 3 4 5 3 7 10 3 4 5 7 7 7 9 1 7 2 6 5 4 3 1 1 2 4 2 4 3 6 4 9 5 6 5 8 5 7 8 6 3 3
9 6 4 4 4 4 6 6 3 4 2 4 4 3 5 5 8 6 3 2 2 5 4 4 3 3 4 4 4 3 4 8 3 3 7 10 7 13 11 7 4 3 1 2
9 7 5 4 5 6 7 4 4 4 5 4 3 1 4 4 4 5 6 7 10 8 4 3 3 3 7 5 5 5 4 5 5 10 11 3 11 9 7 5 4 4 6 4
9 7 5 5 6 8 7 7 6 4 3 3 2 2 3 2 1 3 4 9 6 3 3 2 3 2 1 1 2 4 6 8 6 7 3 0 4 6 6 5 6 2 3 6
9 7 5 4 5 5 3 2 4 4 5 3 2 3 2 0 1 5 5 3 2 2 3 2 3 2 3 2 3 6 8 7 6 2 6 6 8 7 7 7 3 3 6 9
11 8 6 3 3 4 3 1 1 4 4 3 2 2 2 3 4 3 4 7 2 1 1 2 2 2 2 2 5 6 8 2 5 10 9 5 4 4 8 8 5 3 8 11
11 9 7 5 4 3 1 6 6 5 5 2 3 2 1 2 1 2 4 2 2 2 1 1 3 1 2 4 8 10 7 9 7 7 3 4 8 6 7 2 5 7 9 12
13 9 8 4 2 1 1 4 4 3 2 3 3 6 4 4 2 2 1 0 1 1 1 1 2 2 6 7 7 6 11 7 8 7 6 6 3 1 3 5 7 8 9 13
15 9 3 0 5 5 9 2 2 3 2 2 3 4 3 4 2 2 2 1 1 2 2 3 2 3 9 4 3 5 9 7 8 8 6 2 0 2 4 7 10 10 11 13
7 3 2 3 12 3 4 1 2 1 2 3 2 6 5 3 3 2 1 3 2 2 3 3 3 3 5 7 7 6 9 12 8 4 6 3 3 5 6 7 9 8 10 11
8 13 9 4 3 2 4 4 1 3 4 2 2 1 3 2 1 3 1 3 2 4 6 2 3 1 10 9 10 10 11 9 8 5 3 4 7 9 9 7 10 11 14 20
7 6 3 2 1 3 5 7 3 3 2 2 2 2 2 2 2 2 2 5 4 1 2 3 1 6 6 8 8 8 8 12 8 3 5 8 8 8 11 11 15 17 15 17
3 2 3 1 3 0 1 2 2 2 2 4 3 2 2 2 2 2 3 1 2 3 3 3 4 6 8 7 7 7 6 8 3 3 7 6 7 10 12 15 18 18 18 19
2 1 2 3 2 2 1 2 2 2 2 2 2 2 2 1 2 0 3 4 3 2 1 2 5 6 7 8 6 4 5 4 4 7 9 10 10 11 15 17 18 17 18 22
2 2 2 1 2 1 2 3 3 2 1 1 2 2 1 2 1 2 1 1 0 2 2 3 5 5 5 5 5 3 3 6 9 11 12 13 14 14 14 14 18 23 22 22
2 2 1 1 3 3 2 2 2 3 2 2 1 2 4 1 1 1 1 2 2 2 2 4 6 5 3 3 1 3 6 9 11 13 14 14 14 16 17 15 19 19 15 15

GFSNW_925_spd_033.txt.gz
Wind_Speed
1 1 1 9 14 16 11 1 1 7 9 3 2 2 5 1 3 2 3 3 5 3 4 5 5 4 4 5 5 3 3 3 3 4 3 3 1 3 4 4 4 1 4 5
1 2 1 8 16 18 6 2 3 3 2 3 2 6 2 1 5 4 0 5 6 5 4 5 9 5 6 8 5 1 3 2 3 3 4 4 1 2 2 4 4 5 5 5
1 2 3 6 16 19 1 1 2 2 1 2 4 5 4 2 6 3 4 5 4 1 5 5 4 4 3 5 3 3 3 2 5 5 2 1 2 5 4 2 3 4 6 6
2 2 3 3 12 13 5 2 4 7 4 4 5 5 8 5 2 1 2 1 3 4 3 5 5 5 4 2 1 2 3 2 4 5 6 4 3 5 7 5 6 3 7 3
2 1 2 3 7 11 5 2 2 1 4 5 3 6 5 9 8 6 4 3 6 8 4 3 7 8 5 4 4 2 3 1 3 3 7 7 4 8 8 4 2 3 4 4
2 1 2 3 6 11 4 3 3 4 3 3 3 4 2 3 8 3 3 4 11 13 6 8 7 7 6 6 6 3 3 3 3 3 5 6 4 3 4 3 5 3 3 3
3 2 3 3 5 4 1 3 3 4 3 1 4 7 4 7 6 5 6 8 8 4 5 6 8 11 11 8 7 5 4 4 3 2 4 3 4 5 7 5 7 7 10 11
4 3 4 5 5 4 4 3 3 3 1 1 3 5 7 11 12 8 12 8 4 7 6 4 5 5 6 4 8 6 5 4 3 3 1 6 6 2 3 4 2 6 7 7
4 4 6 6 6 6 6 6 5 4 5 3 6 2 8 5 4 4 4 5 10 6 4 4 4 4 6 4 2 8 7 6 4 2 4 6 6 4 3 1 3 3 7 6
5 5 6 7 7 7 5 5 4 2 4 4 5 3 5 6 5 4 4 1 3 6 3 3 3 3 1 5 8 4 3 1 4 2 3 7 8 0 3 4 5 6 6 3
6 5 6 7 7 7 7 7 9 4 3 4 7 7 5 3 4 5 4 4 4 3 4 3 4 3 4 1 7 7 7 6 4 2 2 7 6 3 6 4 4 6 4 4
7 5 6 7 6 6 6 5 10 10 6 2 7 13 14 10 5 5 3 6 4 4 4 1 2 2 1 1 2 3 2 7 6 8 6 6 3 5 4 6 6 4 4 5
7 6 7 7 7 8 10 8 7 6 3 3 4 4 8 6 12 7 4 2 5 4 3 3 3 3 3 3 4 1 3 5 3 4 5 5 9 7 6 5 6 6 5 4
8 7 7 8 10 10 8 7 6 8 6 4 2 1 5 5 8 8 8 7 9 7 4 3 3 2 4 4 4 4 5 3 1 2 5 9 4 5 6 5 5 5 5 6
9 7 7 8 10 11 12 13 10 8 4 4 2 5 4 4 4 8 11 13 5 3 3 2 3 3 2 2 2 3 3 5 4 5 4 4 4 7 6 6 6 5 4 2
10 7 6 6 8 10 4 3 6 7 5 4 2 1 4 4 1 4 12 6 3 3 3 2 3 3 4 3 3 5 5 2 3 5 5 6 8 6 6 5 5 5 4 2
10 8 6 6 5 5 6 4 3 5 5 3 3 0 4 5 3 5 4 7 2 2 3 1 3 3 3 2 4 5 5 8 11 11 8 5 3 4 8 5 6 6 8 10
11 9 7 7 9 8 6 7 6 6 9 6 4 2 3 4 2 2 5 2 3 4 1 2 2 3 2 4 6 7 5 11 9 7 5 5 7 8 9 9 8 6 6 8
12 10 7 4 3 3 2 6 5 6 5 4 3 5 3 2 2 2 3 2 1 2 0 1 2 1 5 5 4 4 10 7 9 7 6 10 7 5 6 6 7 5 4 6
14 9 3 2 1 5 6 2 4 4 3 3 3 2 2 3 1 1 2 1 2 1 3 2 2 3 5 7 4 8 8 8 8 7 5 6 6 6 6 5 7 5 2 5
5 3 1 1 8 2 4 2 2 1 1 1 2 3 5 1 3 2 1 2 2 2 3 3 2 3 3 6 7 7 10 12 10 9 12 12 7 6 5 4 4 5 7 7
9 14 8 3 4 3 3 3 1 2 3 1 2 1 2 1 2 3 1 3 2 4 4 2 3 1 6 8 7 7 10 10 14 16 13 14 12 8 5 5 8 8 10 15
7 6 3 2 2 3 5 7 2 2 2 2 1 2 2 1 2 3 2 5 5 1 3 3 1 3 5 7 6 8 15 19 16 12 9 5 3 4 6 8 10 12 14 16
4 2 3 1 2 2 2 1 2 1 2 3 2 2 2 0 1 2 4 2 2 2 2 3 1 7 7 6 5 8 5 9 9 4 3 4 6 9 8 10 11 13 15 17
3 1 2 2 1 1 1 1 1 3 1 2 2 2 1 1 2 0 3 2 2 1 1 2 2 3 8 7 6 7 5 4 2 2 4 7 8 9 12 13 14 14 17 19
3 3 2 1 2 2 2 2 2 2 2 1 2 2 2 2 1 1 1 3 1 2 1 2 3 4 4 6 6 6 4 1 4 8 9 10 11 12 12 13 18 20 19 18
2 2 2 2 3 3 1 1 0 2 1 2 1 3 2 1 1 2 3 3 2 3 1 1 4 5 5 6 5 2 5 8 9 10 11 13 12 12 15 16 21 20 19 17

GFSNW_925_spd_036.txt.gz
Wind_Speed
5 3 6 13 17 18 14 5 2 4 6 3 1 3 3 3 4 4 5 3 4 4 4 4 4 3 2 6 2 3 2 4 3 1 2 0 2 3 4 4 2 2 3 5
5 3 6 13 18 21 8 4 2 2 1 4 2 4 4 2 2 1 2 2 4 4 4 6 3 4 2 7 4 2 3 2 3 6 6 5 2 1 5 6 3 6 5 5
6 3 5 13 19 20 5 3 2 3 3 1 6 3 3 3 3 2 4 3 5 5 5 6 4 3 4 4 3 1 2 3 5 6 4 3 1 2 4 4 3 3 6 6
6 4 4 11 19 22 2 2 4 6 4 3 3 4 5 3 1 2 3 4 3 5 3 3 4 3 2 4 3 2 3 3 2 2 3 2 1 1 4 2 5 5 5 5
6 4 5 11 16 16 5 3 3 2 3 5 6 5 7 8 3 4 1 3 4 4 4 5 7 7 3 4 1 2 3 1 2 2 6 6 3 5 4 4 2 4 8 5
6 5 5 11 18 18 4 3 0 5 2 5 4 4 7 9 9 3 4 9 7 9 3 6 6 3 6 6 6 2 3 4 3 3 4 5 5 5 3 3 2 3 4 4
6 6 7 10 15 16 5 2 4 4 1 4 5 4 2 6 3 7 3 5 6 3 6 3 6 12 11 11 8 3 4 4 2 2 3 1 5 5 4 9 3 7 9 7
7 7 8 10 10 9 6 3 3 3 1 1 3 5 10 8 7 6 5 5 1 7 6 5 5 5 6 4 6 6 3 5 3 3 2 5 2 4 5 5 5 6 8 7
8 7 7 8 7 8 7 8 7 5 6 2 2 4 8 6 4 5 4 5 6 8 4 4 4 4 5 3 2 6 7 6 4 3 4 6 5 3 4 5 5 7 7 7
8 7 7 8 7 7 7 6 6 5 4 3 3 3 5 6 5 4 2 1 4 4 3 3 3 3 4 5 7 4 2 3 4 2 2 7 7 5 2 5 7 7 7 6
9 8 8 8 7 6 7 9 6 3 3 3 5 4 4 3 3 5 4 4 4 3 4 3 3 3 4 2 5 6 7 6 4 2 2 8 6 4 7 5 4 6 6 5
9 9 8 8 7 6 8 6 11 11 5 3 8 14 14 7 2 6 2 5 4 4 4 1 3 2 2 2 3 3 2 7 6 9 6 5 5 4 2 5 6 5 6 5
10 9 9 8 8 7 8 10 6 7 4 4 4 3 9 11 12 3 5 2 5 4 3 4 2 3 4 4 5 3 4 5 3 3 4 5 4 3 4 4 5 5 4 5
10 9 10 10 9 8 9 8 7 8 6 4 3 2 5 8 10 8 5 11 9 8 3 3 3 3 4 3 3 4 5 5 4 2 3 4 2 2 6 5 6 5 5 5
10 9 9 11 12 12 14 16 13 7 5 4 1 1 6 8 9 13 14 18 5 3 3 2 3 2 2 1 2 3 4 6 4 6 6 4 4 8 6 6 5 6 5 4
11 9 8 9 12 12 4 4 7 8 5 4 2 4 6 11 11 17 14 8 4 3 3 3 2 2 3 3 3 6 4 2 4 4 3 2 7 7 6 5 7 8 7 12
11 9 8 7 7 4 7 4 2 4 5 3 3 3 5 5 5 4 3 6 2 3 2 1 2 1 3 2 4 4 5 5 6 9 9 5 3 5 8 5 7 14 15 13
12 11 12 13 14 12 8 11 8 6 11 5 4 1 4 5 2 2 4 2 3 4 1 2 2 1 2 3 6 4 3 7 6 5 2 5 9 10 8 8 12 7 6 7
13 12 11 6 4 4 3 5 6 10 6 4 2 5 4 2 2 1 3 2 2 2 1 1 3 2 5 5 4 4 7 9 9 6 7 9 8 7 8 7 6 6 4 3
14 8 4 3 2 4 4 2 4 5 3 3 2 1 2 3 1 2 2 2 1 1 3 1 2 3 5 5 4 4 6 7 9 12 8 8 8 7 5 6 6 6 3 1
4 3 2 2 4 2 4 2 3 1 1 1 1 2 3 2 3 2 1 2 1 2 3 3 2 3 3 4 6 6 10 13 12 13 13 13 7 5 5 4 4 2 3 4
7 14 8 3 4 3 4 2 1 1 3 1 2 1 2 1 2 3 1 3 2 5 3 2 3 1 1 5 7 8 12 17 17 19 12 11 11 8 5 2 3 4 6 10
6 6 4 2 3 2 5 6 1 2 2 2 1 1 1 2 2 2 2 4 4 2 2 3 2 5 4 6 8 9 14 19 16 11 10 8 5 1 2 4 6 8 10 12
4 3 4 1 1 1 1 1 1 0 2 2 2 2 2 1 2 1 3 1 1 2 2 3 1 7 7 6 5 7 5 9 10 7 5 3 2 4 6 8 10 12 14 15
3 2 2 2 2 2 1 1 1 2 1 2 2 2 2 1 2 0 2 1 2 1 1 1 2 2 3 4 4 7 5 5 6 4 5 6 7 8 11 12 12 12 16 17
3 3 2 2 2 1 1 1 2 2 1 1 2 2 2 1 1 1 2 3 2 1 1 1 4 5 3 5 5 7 5 2 4 6 7 8 11 13 14 14 15 18 16 16
3 2 2 2 4 3 1 1 1 1 1 1 2 2 2 0 1 1 3 2 2 2 3 0 1 4 5 6 6 4 3 4 5 6 9 11 13 13 14 14 18 16 15 13

GFSNW_925_spd_042.txt.gz
Wind_Speed
34 28 25 23 26 26 24 5 3 3 7 4 1 4 5 2 4 0 4 4 3 5 3 4 3 4 2 3 2 3 1 5 3 2 2 3 2 3 4 4 3 2 3 5
32 28 25 25 30 32 14 4 3 3 2 4 1 3 2 2 3 2 3 3 2 3 4 5 2 3 1 3 2 6 5 2 3 6 5 3 2 3 4 5 3 5 5 5
31 27 25 29 33 33 11 4 3 3 3 1 7 4 3 2 2 1 4 4 5 5 4 5 5 3 1 1 2 5 6 3 5 7 4 3 4 3 4 5 3 4 6 3
29 26 27 32 35 32 9 2 4 4 4 2 3 4 6 4 3 1 4 4 4 4 4 3 3 2 2 3 1 3 3 4 2 2 3 2 2 4 6 6 5 5 4 7
27 27 28 33 36 27 4 4 4 3 1 6 6 2 6 7 2 3 2 6 2 2 6 6 8 6 4 4 2 3 3 2 2 2 4 6 3 5 7 5 3 7 3 7
27 25 28 34 37 22 5 3 3 5 2 4 5 6 6 7 5 4 3 7 5 3 2 3 4 5 7 5 6 3 3 4 3 4 4 4 6 9 9 5 5 7 6 8
24 24 28 34 38 26 5 4 4 4 2 3 6 7 3 5 3 7 3 4 5 1 6 6 6 10 11 11 8 3 5 4 3 2 3 2 5 2 6 7 5 6 2 4
21 23 28 34 39 26 6 7 4 3 2 2 2 7 6 7 5 4 3 4 2 8 4 5 5 5 6 5 7 7 3 5 3 4 3 6 5 4 6 7 7 8 7 5
20 21 26 33 37 29 7 8 6 4 6 4 4 5 4 5 4 3 3 4 5 6 4 4 4 4 4 1 2 4 5 6 4 3 4 6 6 2 4 4 5 6 8 8
19 21 25 28 32 29 12 6 6 5 4 2 2 3 5 5 5 4 3 5 1 3 3 3 3 3 3 4 5 2 3 3 4 2 3 8 6 3 1 5 6 6 9 8
20 20 21 24 28 26 15 6 4 3 3 2 3 3 5 4 3 5 5 4 3 3 4 3 3 3 5 2 4 6 7 6 4 3 2 7 7 3 7 5 1 5 7 7
19 18 18 22 26 22 18 3 12 12 5 3 7 15 13 2 4 6 2 4 4 5 5 1 3 2 2 2 3 2 3 6 5 8 6 4 6 3 1 2 3 4 6 5
19 17 17 21 22 22 21 15 10 9 4 4 4 4 7 15 3 4 5 2 5 3 2 4 3 3 4 4 5 3 4 4 3 2 4 7 8 4 4 5 5 4 5 6
18 18 18 20 18 16 20 12 8 9 4 4 2 7 5 12 4 2 2 13 8 7 3 3 3 3 3 3 3 3 4 5 4 5 8 3 8 7 4 4 4 5 5 5
20 19 19 18 19 21 25 23 15 9 5 4 1 1 10 15 13 18 19 18 6 3 3 2 3 3 4 1 2 3 5 7 5 6 6 4 5 2 6 7 5 6 7 6
20 23 24 21 18 13 7 4 12 11 7 4 2 2 5 11 15 20 14 8 4 3 3 2 1 1 3 3 3 6 4 3 1 3 1 1 2 3 4 6 6 7 9 13
19 18 14 11 9 9 9 5 2 6 6 4 3 3 4 6 5 5 4 7 3 3 2 2 2 2 3 3 4 3 4 5 2 2 3 1 1 2 5 9 14 18 19 17
23 22 22 22 19 16 12 19 11 9 12 4 4 1 3 8 2 2 4 2 2 4 2 1 2 2 2 3 4 5 3 2 4 4 4 2 7 9 10 18 19 13 10 8
19 18 14 7 8 5 3 7 12 16 9 4 3 4 3 3 2 1 2 2 3 2 1 1 2 1 4 2 4 5 3 3 4 6 8 11 12 11 12 13 13 9 5 5
13 5 7 3 4 4 4 4 4 6 4 4 3 0 2 2 1 2 2 2 1 1 3 1 1 2 2 5 5 6 6 3 7 10 7 11 11 12 11 7 4 4 5 4
4 4 2 3 5 4 4 4 4 3 3 3 1 1 3 3 2 2 1 2 1 1 3 2 1 2 2 5 8 9 12 17 17 18 15 14 9 7 4 4 4 3 3 4
8 15 8 4 5 4 6 2 1 2 3 1 2 1 2 1 2 3 0 3 1 3 3 1 2 1 4 8 9 10 13 16 15 15 11 8 6 6 5 2 1 2 3 4
6 5 4 3 3 4 4 5 1 1 2 2 1 2 1 2 3 3 2 3 3 2 2 2 1 5 7 7 9 9 10 12 12 10 10 8 6 3 2 2 4 5 7 9
4 3 4 2 2 2 1 1 2 1 2 2 3 2 2 0 2 1 3 1 2 3 3 2 0 7 7 5 3 5 5 8 9 7 5 4 3 2 3 5 8 10 12 14
3 3 3 2 2 3 1 1 2 2 1 1 3 2 2 2 2 1 2 1 2 2 3 0 1 5 5 5 4 5 5 4 4 4 3 3 4 5 8 9 10 12 16 18
3 4 4 2 3 2 2 2 2 1 1 1 2 2 2 2 2 2 2 3 3 2 0 0 2 4 3 6 6 6 5 5 5 5 5 5 7 8 10 14 17 20 21 22
3 3 3 2 3 3 2 1 1 2 2 2 2 3 3 2 2 1 1 3 2 4 1 0 3 5 5 5 4 5 7 6 6 6 9 10 11 13 17 17 21 23 25 25

GFSNW_925_spd_045.txt.gz
Wind_Speed
45 39 38 32 27 25 25 8 3 10 17 3 0 4 5 4 1 3 5 4 3 5 3 3 3 6 2 1 1 4 1 4 3 2 0 1 1 3 4 3 4 1 1 4
45 42 39 33 29 37 19 5 2 4 6 4 2 2 3 3 2 2 4 3 3 3 4 4 2 3 0 1 3 6 5 1 3 2 2 1 3 3 4 5 2 5 4 3
46 44 38 33 32 39 18 4 3 3 2 1 7 5 4 3 2 2 3 5 4 4 3 4 5 3 1 1 2 5 5 3 4 6 3 2 4 4 5 4 3 5 6 3
48 41 36 34 36 40 9 1 4 4 4 2 4 4 6 5 2 1 2 3 3 6 4 2 3 2 2 3 3 3 3 3 2 2 2 1 2 4 9 8 4 6 4 9
42 39 35 35 40 35 6 5 4 3 2 7 6 3 6 7 3 1 0 7 3 3 6 6 8 7 4 4 2 2 2 3 2 2 2 3 3 4 7 6 4 10 4 12
40 36 34 35 44 34 5 4 3 5 2 3 6 6 5 7 7 3 3 8 5 4 2 3 3 6 8 5 5 3 2 5 3 3 2 3 5 9 12 6 6 7 10 8
36 33 33 35 45 37 6 5 5 4 2 3 6 8 5 7 4 7 2 4 5 1 10 8 8 12 13 13 10 3 5 4 2 2 1 1 4 2 1 10 6 12 2 4
32 31 32 37 46 34 5 9 5 4 3 2 3 7 6 5 4 4 4 3 1 8 3 4 4 4 4 5 7 7 3 4 3 3 3 5 5 3 5 6 5 12 11 5
29 30 33 40 47 31 10 12 9 5 7 5 5 5 5 5 4 3 3 4 5 5 3 3 4 4 3 2 1 3 5 6 3 3 2 5 5 2 3 3 4 2 7 9
29 31 34 41 46 28 12 8 9 7 4 1 3 4 6 5 4 4 4 5 2 2 2 3 3 3 1 4 5 2 2 3 3 2 3 7 6 2 2 3 4 4 8 8
27 28 32 40 47 29 7 9 7 5 3 1 0 1 5 3 2 5 5 4 2 2 3 3 3 3 4 2 2 4 5 6 3 3 1 6 5 3 5 3 1 2 6 8
22 26 32 39 45 31 11 7 12 12 4 3 8 16 12 1 3 6 0 3 4 4 4 1 3 2 1 2 3 0 3 5 4 8 5 3 5 3 1 1 2 2 3 3
22 25 30 35 37 28 13 17 14 7 3 3 3 3 6 11 3 3 5 1 5 3 1 4 2 3 3 4 5 3 4 3 2 1 2 7 10 5 5 5 4 2 3 5
22 26 31 36 34 23 22 17 22 6 4 4 2 8 5 13 3 2 3 12 9 7 2 3 3 3 3 3 2 2 2 6 4 4 7 4 7 6 3 3 2 2 4 5
23 29 32 34 27 21 25 15 8 5 2 4 2 1 10 17 15 20 20 16 6 2 3 2 2 3 4 1 1 3 5 6 4 5 2 2 3 4 2 3 2 6 10 11
27 27 26 25 25 28 20 3 4 6 7 4 3 2 4 12 15 20 14 7 4 3 3 2 2 1 2 3 3 3 1 1 1 3 2 1 2 3 2 5 9 12 14 14
25 24 24 18 13 9 8 4 3 5 5 4 3 2 4 7 5 4 4 7 3 3 2 2 2 2 2 3 3 3 6 4 4 4 2 1 5 4 8 14 17 20 21 19
25 30 31 30 27 20 12 19 10 7 11 4 4 1 3 8 3 2 4 2 2 4 2 2 2 2 1 2 2 5 4 4 6 7 6 6 11 15 14 18 19 14 12 10
24 19 13 5 9 4 3 6 12 18 10 4 3 4 3 3 2 1 2 2 3 2 2 2 2 1 3 1 6 7 3 2 6 11 13 14 16 15 14 12 12 10 6 7
8 3 7 3 3 3 4 5 5 6 5 4 3 1 2 1 1 2 2 2 1 2 0 0 2 2 3 5 4 5 5 6 11 13 10 13 12 10 10 8 5 3 4 4
4 3 2 4 5 3 4 4 4 3 4 3 2 1 3 3 2 2 2 2 1 2 1 2 1 1 2 4 7 7 12 15 14 16 13 13 11 8 6 3 3 3 1 1
9 14 8 3 5 4 6 3 2 3 2 1 2 2 2 1 2 3 1 3 1 2 2 2 2 2 6 6 8 8 12 15 15 16 13 10 7 6 5 4 3 2 2 3
6 6 5 4 4 7 4 4 1 1 2 2 2 2 2 2 2 3 2 3 2 3 2 2 2 7 5 7 8 7 8 11 11 10 9 9 7 6 6 5 5 4 6 8
4 3 4 2 1 1 1 1 2 1 2 3 3 2 2 1 2 1 3 1 2 3 3 2 4 6 8 7 3 6 5 6 8 7 7 8 8 7 7 9 9 11 13 16
4 3 3 2 2 3 2 2 2 2 1 1 3 3 2 2 3 2 3 2 2 2 2 1 4 9 6 5 4 5 5 5 7 7 8 8 8 8 10 13 14 15 17 20
3 4 3 1 3 2 2 2 2 2 1 1 2 2 2 2 2 2 2 4 3 2 1 2 4 6 5 6 5 6 7 8 8 9 9 11 13 12 10 13 19 22 22 22
3 3 3 2 3 3 2 2 1 2 2 2 2 3 1 2 2 2 1 2 2 4 2 2 4 6 7 8 8 9 10 11 11 11 12 11 10 13 16 18 20 20 18 19